Overview Statistics Trail Chart Weather Telemetry Raw packets
 

This is the latest recevied weather packets stored in our database for station/object PY5AL-13. If no packets are shown the sender has not sent any weather packets the latest 10 day(s).

<< 21 22 23 24 25 26 27 >>
Time Temp. Humidity Pressure Rain* Wind** Luminosity Snow
1777187649 28.33° C 60% 1011.3 hPa - - - -
1777186458 28.33° C 60% 1011.1 hPa - - - -
1777185251 28.33° C 59% 1011 hPa - - - -
1777184049 28.33° C 59% 1011.4 hPa - - - -
1777182849 28.89° C 59% 1011.2 hPa - - - -
1777181649 28.89° C 59% 1011.5 hPa - - - -
1777180449 28.89° C 59% 1011.9 hPa - - - -
1777179249 28.89° C 58% 1011.9 hPa - - - -
1777178049 28.89° C 57% 1011.9 hPa - - - -
1777175626 29.44° C 56% 1012.4 hPa - - - -
1777174426 28.89° C 56% 1012.6 hPa - - - -
1777173226 28.89° C 57% 1012.8 hPa - - - -
1777172026 28.89° C 56% 1012.9 hPa - - - -
1777170826 29.44° C 56% 1012.8 hPa - - - -
1777169626 29.44° C 55% 1012.8 hPa - - - -
1777168427 30° C 55% 1012.9 hPa - - - -
1777167226 30° C 53% 1012.9 hPa - - - -
1777166026 30° C 53% 1012.8 hPa - - - -
1777164827 29.44° C 54% 1012.9 hPa - - - -
1777163627 30° C 53% 1012.8 hPa - - - -
1777162427 30° C 53% 1012.7 hPa - - - -
1777161227 30° C 55% 1012.7 hPa - - - -
1777160027 30° C 57% 1012.6 hPa - - - -
1777158827 30° C 56% 1012.4 hPa - - - -
1777157627 30° C 56% 1012.2 hPa - - - -

* Rain since midnight (hover to see other rain measurements)
** Current wind speed in m/s (hover to see current wind gust speed)